Flag Weather past 2 weeks in Steinbach, Manitoba, Canada

Now
33 °F

Chilly.


Feels Like: 30 °F
Forecast: 11 / 34 °F
Wind: 3 mph from East

Location: Winnipeg The Forks

Current Time: Nov 23, 2014 at 12:10:55 AM

Latest Report: Nov 22, 2014 at 11:00 PM


Visibility: N/A

Pressure: 29.36 "Hg

Humidity: 87%

Dew point: 29 °F

Location of SteinbachLocation

Historic Weather in Steinbach — Graph

°F

Steinbach temperature yesterday

Maximum temperature yesterday: 34 °F (at 12:00 AM)
Minimum temperature yesterday: 25 °F (at 10:00 AM)
Average temperature yesterday: 29 °F

Past Weeks' High & Low Weather Summary

 TemperatureHumidityPressure
High36 °F (Nov 21, 9:00 PM)90% (Nov 21, 11:00 PM)30.54 "Hg (Nov 21, 11:00 PM)
Low3 °F (Nov 20, 8:00 AM)34% (Nov 8, 2:00 PM)29.35 "Hg (Nov 22, 10:00 PM)
Average18 °F71%30.05 "Hg
* Reported Nov 7 10:00 PM — Nov 22 10:00 PM, Steinbach, Weather by CustomWeather, © 2014

Note: Actual official high and low records may vary slightly from our data, if they occured in-between our weather recording intervals... More about our weather records

Advertising

Steinbach weather history for previous 24 hours

 ConditionsComfort  
Time TempWeatherWind HumidityBarometerVisibility
10:00 PM
Nov 22
32 °FChilly.6 mph88%29.35 "HgN/A
9:00 PM31 °FChilly.5 mph87%29.39 "HgN/A
8:00 PM30 °FChilly.2 mph83%29.45 "HgN/A
7:00 PM29 °FChilly.6 mph80%29.45 "HgN/A
6:00 PM29 °FChilly.6 mph78%29.46 "HgN/A
5:00 PM28 °FChilly.6 mph78%29.50 "HgN/A
4:00 PM28 °FChilly.6 mph77%29.52 "HgN/A
3:00 PM28 °FChilly.5 mph77%29.55 "HgN/A
2:00 PM28 °FChilly.6 mph75%29.56 "HgN/A
1:00 PM28 °FChilly.5 mph74%29.59 "HgN/A
12:00 PM27 °FChilly.6 mph82%29.62 "HgN/A
11:00 AM26 °FChilly.5 mph85%29.64 "HgN/A
10:00 AM25 °FChilly.6 mph83%29.65 "HgN/A
9:00 AM26 °FChilly.2 mph86%29.66 "HgN/A
8:00 AM28 °FChilly.6 mph79%29.64 "HgN/A
7:00 AM27 °FChilly.3 mph83%29.65 "HgN/A
6:00 AM29 °FChilly.6 mph85%29.65 "HgN/A
5:00 AM30 °FChilly.3 mph89%29.64 "HgN/A
4:00 AM31 °FChilly.5 mph85%29.63 "HgN/A
3:00 AM32 °FChilly.3 mph83%29.63 "HgN/A
2:00 AM31 °FChilly.3 mph87%29.62 "HgN/A
1:00 AM33 °FChilly.3 mph84%29.61 "HgN/A
12:00 AM34 °FChilly.2 mph85%29.59 "HgN/A
Weather by CustomWeather, © 2014

See weather overviewHow to use our weather pages